Location: St. Clair Shores
(42.4970°N, 82.8890°W)
Time: 09:53:31
(UTC-04:00)

OTV 5 (USA 277) - Visible Passes

Search period start: 23 July 2018 00:00
Search period end: 02 August 2018 00:00
Orbit: 312 x 321 km, 54.5° (Epoch: 05 July)

Date Brightness Start Highest point End Pass type
(mag) Time Alt. Az. Time Alt. Az. Time Alt. Az.
27 Jul ? 05:39:33 10° S 05:41:18 16° SE 05:43:03 10° E visible
30 Jul ? 04:49:27 21° SSE 04:50:16 25° SE 04:52:35 10° ENE visible
31 Jul ? 05:03:28 30° SW 05:04:37 78° SE 05:07:19 10° NE visible
01 Aug ? 03:46:33 11° E 03:46:33 11° E 03:46:44 10° E visible
01 Aug ? 05:17:25 17° W 05:19:06 37° NW 05:21:40 10° NE visible
